When you browse on this site, cookies collect data to enhance your experience and personalize the content and advertising you see.
Visit our Privacy Policy to learn more. By continuing to use the site, you agree to this use of cookies and data.
  • In Austria
  • List of Countries
  • For 7 days
  • Water Temperature
  • Weather Map
  • News
  • Weather Widgets
  • user-avatar
    Login

    Hourly Weather Zorya

    Today, 25 August, Sunday

    Time Temperature Precipitation Wind Pressure Humidity
    00:00 +16°C° 0 mm 2 mps 749 mmHg 71%
    01:00 +15°C° 0 mm 2 mps 749 mmHg 72%
    02:00 +15°C° 0 mm 2 mps 749 mmHg 74%
    03:00 +15°C° 0 mm 2 mps 749 mmHg 73%
    04:00 +15°C° 0 mm 2 mps 749 mmHg 72%
    05:00 +14°C° 0 mm 2 mps 749 mmHg 71%
    06:00 +16°C° 0 mm 2 mps 749 mmHg 69%
    07:00 +17°C° 0 mm 3 mps 750 mmHg 67%
    08:00 +18°C° 0 mm 3 mps 750 mmHg 66%
    09:00 +20°C° 0 mm 3 mps 750 mmHg 62%
    10:00 +22°C° 0 mm 3 mps 750 mmHg 57%
    11:00 +24°C° 0 mm 3 mps 750 mmHg 53%
    12:00 +25°C° 0 mm 3 mps 750 mmHg 51%
    13:00 +26°C° 0 mm 3 mps 750 mmHg 49%
    14:00 +27°C° 0 mm 3 mps 750 mmHg 47%
    15:00 +27°C° 0 mm 3 mps 749 mmHg 49%
    16:00 +27°C° 0 mm 3 mps 749 mmHg 51%
    17:00 +26°C° 0 mm 3 mps 749 mmHg 53%
    18:00 +24°C° 0 mm 3 mps 749 mmHg 58%
    19:00 +21°C° 0 mm 3 mps 749 mmHg 62%
    20:00 +19°C° 0 mm 3 mps 749 mmHg 67%
    21:00 +19°C° 0 mm 3 mps 749 mmHg 67%
    22:00 +18°C° 0 mm 3 mps 749 mmHg 67%
    23:00 +17°C° 0 mm 3 mps 749 mmHg 67%

    Tomorrow, 26 August, Monday

    Time Temperature Precipitation Wind Pressure Humidity
    00:00 +17°C° 0 mm 3 mps 749 mmHg 68%
    01:00 +16°C° 0 mm 2 mps 750 mmHg 69%
    02:00 +16°C° 0 mm 2 mps 750 mmHg 70%
    03:00 +15°C° 0 mm 2 mps 750 mmHg 72%
    04:00 +15°C° 0 mm 2 mps 749 mmHg 74%
    05:00 +14°C° 0 mm 3 mps 749 mmHg 76%
    06:00 +16°C° 0 mm 3 mps 749 mmHg 74%
    07:00 +17°C° 0 mm 3 mps 749 mmHg 71%
    08:00 +19°C° 0 mm 4 mps 750 mmHg 69%
    09:00 +21°C° 0 mm 4 mps 750 mmHg 65%
    10:00 +23°C° 0 mm 4 mps 750 mmHg 60%
    11:00 +25°C° 0 mm 4 mps 750 mmHg 56%
    12:00 +26°C° 0 mm 4 mps 750 mmHg 54%
    13:00 +27°C° 0 mm 4 mps 749 mmHg 52%
    14:00 +28°C° 0 mm 4 mps 749 mmHg 50%
    15:00 +28°C° 0 mm 4 mps 749 mmHg 52%
    16:00 +27°C° 0 mm 4 mps 749 mmHg 55%
    17:00 +27°C° 0 mm 3 mps 748 mmHg 57%
    18:00 +25°C° 0 mm 3 mps 748 mmHg 62%
    19:00 +22°C° 0 mm 3 mps 748 mmHg 67%
    20:00 +20°C° 0 mm 3 mps 748 mmHg 73%
    21:00 +20°C° 0 mm 3 mps 748 mmHg 75%
    22:00 +19°C° 0 mm 3 mps 748 mmHg 77%
    23:00 +18°C° 0 mm 3 mps 748 mmHg 80%

    Day after tomorrow, 27 August, Tuesday

    Time Temperature Precipitation Wind Pressure Humidity
    00:00 +18°C° 0 mm 3 mps 748 mmHg 81%
    01:00 +17°C° 0 mm 3 mps 748 mmHg 83%
    02:00 +17°C° 0 mm 3 mps 748 mmHg 85%
    03:00 +17°C° 0 mm 2 mps 748 mmHg 85%
    04:00 +16°C° 0 mm 2 mps 748 mmHg 85%
    05:00 +16°C° 0 mm 2 mps 748 mmHg 84%
    06:00 +17°C° 0 mm 2 mps 748 mmHg 80%
    07:00 +19°C° 0 mm 3 mps 748 mmHg 75%
    08:00 +20°C° 0 mm 3 mps 749 mmHg 70%
    09:00 +22°C° 0 mm 3 mps 749 mmHg 64%
    10:00 +25°C° 0 mm 3 mps 749 mmHg 59%
    11:00 +26°C° 0 mm 3 mps 749 mmHg 53%
    12:00 +27°C° 0 mm 3 mps 749 mmHg 50%
    13:00 +28°C° 0 mm 3 mps 749 mmHg 48%
    14:00 +29°C° 0 mm 3 mps 749 mmHg 45%
    15:00 +28°C° 0 mm 2 mps 748 mmHg 47%
    16:00 +28°C° 0 mm 2 mps 748 mmHg 49%
    17:00 +28°C° 0 mm 2 mps 748 mmHg 51%
    18:00 +26°C° 0 mm 2 mps 748 mmHg 56%
    19:00 +24°C° 0 mm 2 mps 748 mmHg 60%
    20:00 +21°C° 0 mm 2 mps 748 mmHg 65%
    21:00 +20°C° 0 mm 2 mps 748 mmHg 67%
    22:00 +19°C° 0 mm 2 mps 748 mmHg 69%
    23:00 +19°C° 0 mm 2 mps 748 mmHg 72%

    28 August, Wednesday

    Time Temperature Precipitation Wind Pressure Humidity
    00:00 +18°C° 0 mm 2 mps 748 mmHg 75%
    01:00 +17°C° 0 mm 2 mps 748 mmHg 77%
    02:00 +17°C° 0 mm 2 mps 748 mmHg 80%
    03:00 +16°C° 0 mm 2 mps 748 mmHg 82%
    04:00 +16°C° 0 mm 2 mps 748 mmHg 83%
    05:00 +16°C° 0 mm 2 mps 748 mmHg 84%
    06:00 +17°C° 0 mm 2 mps 748 mmHg 80%
    07:00 +19°C° 0 mm 3 mps 748 mmHg 76%
    08:00 +20°C° 0 mm 3 mps 748 mmHg 72%
    09:00 +22°C° 0 mm 3 mps 748 mmHg 66%
    10:00 +24°C° 0 mm 3 mps 748 mmHg 60%
    11:00 +26°C° 0 mm 3 mps 748 mmHg 55%
    12:00 +27°C° 0 mm 4 mps 748 mmHg 52%
    13:00 +27°C° 0 mm 4 mps 747 mmHg 50%
    14:00 +28°C° 0 mm 4 mps 747 mmHg 48%
    15:00 +27°C° 0 mm 3 mps 747 mmHg 50%
    16:00 +27°C° 0 mm 3 mps 747 mmHg 53%
    17:00 +27°C° 0 mm 3 mps 747 mmHg 55%
    18:00 +25°C° 0 mm 3 mps 746 mmHg 61%
    19:00 +22°C° 0 mm 3 mps 746 mmHg 67%
    20:00 +20°C° 0 mm 3 mps 746 mmHg 72%
    21:00 +19°C° 0 mm 3 mps 746 mmHg 75%
    22:00 +19°C° 0 mm 3 mps 746 mmHg 78%
    23:00 +18°C° 0 mm 3 mps 746 mmHg 81%

    29 August, Thursday

    Time Temperature Precipitation Wind Pressure Humidity
    00:00 +17°C° 0 mm 3 mps 746 mmHg 83%
    01:00 +17°C° 0 mm 3 mps 746 mmHg 85%
    02:00 +16°C° 0 mm 3 mps 746 mmHg 87%
    03:00 +16°C° 0 mm 3 mps 746 mmHg 87%
    04:00 +14°C° 0 mm 3 mps 746 mmHg 88%
    05:00 +14°C° 0 mm 3 mps 746 mmHg 89%
    06:00 +16°C° 0 mm 3 mps 746 mmHg 83%
    07:00 +17°C° 0 mm 4 mps 746 mmHg 77%
    08:00 +18°C° 0 mm 4 mps 746 mmHg 71%
    09:00 +20°C° 0 mm 5 mps 746 mmHg 67%
    10:00 +21°C° 0 mm 5 mps 746 mmHg 62%
    11:00 +23°C° 0 mm 5 mps 747 mmHg 57%
    12:00 +25°C° 0 mm 5 mps 746 mmHg 55%
    13:00 +25°C° 0 mm 5 mps 746 mmHg 53%
    14:00 +26°C° 0 mm 5 mps 746 mmHg 51%
    15:00 +26°C° 0 mm 5 mps 746 mmHg 53%
    16:00 +25°C° 0 mm 5 mps 746 mmHg 55%
    17:00 +25°C° 0 mm 5 mps 745 mmHg 57%
    18:00 +22°C° 0 mm 4 mps 745 mmHg 62%
    19:00 +20°C° 0 mm 4 mps 745 mmHg 67%
    20:00 +19°C° 0 mm 4 mps 745 mmHg 71%
    21:00 +18°C° 0 mm 4 mps 745 mmHg 69%
    22:00 +17°C° 0 mm 4 mps 745 mmHg 67%
    23:00 +17°C° 0 mm 4 mps 745 mmHg 65%

    30 August, Friday

    Time Temperature Precipitation Wind Pressure Humidity
    00:00 +15°C° 0 mm 4 mps 745 mmHg 62%
    01:00 +14°C° 0 mm 4 mps 745 mmHg 60%
    02:00 +14°C° 0 mm 4 mps 745 mmHg 58%
    03:00 +13°C° 0 mm 4 mps 745 mmHg 56%
    04:00 +13°C° 0 mm 4 mps 745 mmHg 55%
    05:00 +12°C° 0 mm 4 mps 745 mmHg 53%
    06:00 +13°C° 0 mm 4 mps 745 mmHg 52%
    07:00 +14°C° 0 mm 5 mps 745 mmHg 52%
    08:00 +15°C° 0 mm 5 mps 746 mmHg 51%
    09:00 +17°C° 0 mm 5 mps 746 mmHg 50%
    10:00 +20°C° 0 mm 5 mps 746 mmHg 49%
    11:00 +22°C° 0 mm 5 mps 746 mmHg 49%
    12:00 +23°C° 0 mm 5 mps 746 mmHg 48%
    13:00 +25°C° 0 mm 5 mps 746 mmHg 47%
    14:00 +26°C° 0 mm 5 mps 746 mmHg 46%
    15:00 +26°C° 0 mm 5 mps 746 mmHg 48%
    16:00 +25°C° 0 mm 4 mps 746 mmHg 50%
    17:00 +25°C° 0 mm 4 mps 745 mmHg 52%
    18:00 +22°C° 0 mm 4 mps 745 mmHg 55%
    19:00 +20°C° 0 mm 4 mps 745 mmHg 59%
    20:00 +18°C° 0 mm 4 mps 745 mmHg 62%
    21:00 +17°C° 0 mm 3 mps 746 mmHg 59%
    22:00 +17°C° 0 mm 3 mps 746 mmHg 56%
    23:00 +16°C° 0 mm 3 mps 746 mmHg 53%
    Show more